[[{"header":{"parameterUnit":"m.s-1","parameterCategory":1,"la1":30.2991,"la2":30.254,"lo1":-89.0895,"lo2":-89.0444,"dy":0.0017,"dx":0.0017,"nx":28,"ny":28,"refTime":"2023-10-19T03:00:00:Z","depth":0,"parameterNumber":2,"parameterNumberName":"U-component_of_WINDS"},"data":[0,0,0,0,0,0,0,0,0,0,0,0,0,0,0,0,0,0,0,0,0,0,0,0,0,0,0,0,0,0,0,0,0,0,0,0,0,0,0,0,0,0,0,0,0,0,0,0,0,0,0,0,0,0,0,0,0,0,0.3465,0.3465,0,0.348,0.348,0.348,0.3487,0.3487,0.3487,0.3487,0.3501,0.3501,0.3502,0,0,0,0,0,0,0,0,0,0,0,0,0,0.3441,0.3442,0.3465,0.3465,0.3466,0.348,0.348,0.348,0.3487,0.3487,0.3487,0.3487,0.3501,0.3501,0.3502,0,0,0,0,0,0,0,0,0,0,0,0,0,0.3453,0.3442,0.3465,0.3471,0.3472,0.348,0.348,0.348,0.3487,0.3487,0.3487,0.3487,0.3501,0.3501,0.3502,0.3505,0,0,0.3503,0.3504,0,0,0,0,0,0,0,0,0.3453,0.3454,0.347,0.347,0.3471,0.3482,0.3477,0.3489,0.3487,0.3481,0.3487,0.3487,0.3494,0.3496,0.3498,0.3506,0.3506,0.3504,0.3504,0.3504,0.3504,0,0,0,0,0,0,0,0.3452,0.3454,0.3471,0.347,0.3471,0.3472,0.3474,0.3479,0.3488,0.3482,0.3482,0.3484,0.3495,0.3498,0.3499,0.3507,0.3503,0.3504,0.3504,0.3505,0.3517,0.3517,0,0,0,0,0,0,0.345,0.3453,0.3471,0.3471,0.3462,0.3472,0.3474,0.3478,0.3488,0.3489,0.3484,0.3484,0.3497,0.3498,0.3499,0.3503,0.3504,0.3505,0.3505,0.3517,0.3517,0.3517,0,0,0,0,0,0,0.345,0.3452,0.347,0.3462,0.3465,0.3473,0.3477,0.3479,0.3482,0.3489,0.3491,0.3485,0.3497,0.3498,0.3504,0.3504,0.3505,0.3505,0.3517,0.3517,0.3517,0.3512,0,0,0,0,0,0,0.3449,0.3452,0.3454,0.3462,0.3465,0.3475,0.3477,0.3479,0.3483,0.3483,0.3491,0.3492,0.3497,0.3503,0.3504,0.3505,0.3506,0.3517,0.3517,0.3517,0.3512,0.3512,0.3511,0,0,0,0,0,0.3448,0.3452,0.3454,0.3456,0.3468,0.3475,0.3476,0.3482,0.3483,0.3484,0.3489,0.3492,0.3504,0.3503,0.3505,0.3505,0.3517,0.3517,0.3517,0.3512,0.3512,0.3511,0,0,0,0,0,0,0.3442,0.3453,0.3455,0.3462,0.3467,0.3476,0.3478,0.3481,0.3487,0.3487,0.3493,0.3495,0.3499,0.3503,0.3502,0.3509,0.351,0.3511,0.3506,0.3506,0.3506,0.3504,0.3506,0,0,0,0,0,0.3442,0.3447,0.3456,0.3461,0.3463,0.347,0.3473,0.3477,0.3483,0.3485,0.3491,0.3496,0.35,0.3503,0.3508,0.3512,0.3514,0.3514,0.3513,0.3513,0.3513,0.3515,0.3514,0.3517,0.3517,0.3517,0,0,0.3441,0.3447,0.345,0.346,0.3464,0.3469,0.3472,0.3477,0.348,0.3486,0.3491,0.3495,0.3501,0.3506,0.3508,0.3509,0.3513,0.3513,0.3513,0.3513,0.3515,0.3514,0.3514,0.3517,0.3517,0.3517,0,0,0.3442,0.3447,0.3451,0.3456,0.3463,0.3468,0.3468,0.3476,0.3479,0.3485,0.3489,0.3492,0.35,0.3504,0.3507,0.3508,0.3511,0.3509,0.3507,0.3509,0.3509,0.3509,0.3508,0.3508,0.3509,0.3509,0.3509,0,0.3439,0.3447,0.3453,0.3458,0.3461,0.3466,0.347,0.3474,0.3482,0.3484,0.3485,0.3495,0.35,0.3505,0.3505,0.3507,0.3508,0.3508,0.3508,0.3508,0.3508,0.3508,0.3508,0.3509,0.3509,0.3509,0.3509,0,0.3444,0.3449,0.3451,0.3459,0.3463,0.3467,0.3473,0.3476,0.3479,0.3483,0.3487,0.3493,0.3498,0.35,0.3503,0.3505,0.3505,0.3507,0.3509,0.3508,0.3508,0.3508,0.3509,0.3509,0.3509,0.3509,0,0,0.3442,0.3452,0.3453,0.3456,0.3464,0.3468,0.3471,0.3477,0.3479,0.3484,0.3487,0.3493,0.3495,0.3498,0.3502,0.3503,0.3502,0.3505,0.3505,0.3504,0.3504,0.3502,0.3502,0.3504,0.3504,0.3504,0.3503,0,0.3443,0.3451,0.3456,0.3461,0.3465,0.347,0.3473,0.3477,0.3481,0.3485,0.3488,0.3493,0.3495,0.3497,0.3498,0.3502,0.3502,0.3502,0.3506,0.3506,0.3504,0.3502,0.3501,0.35,0.3503,0.3503,0.3503,0,0.3446,0.3451,0.3457,0.3463,0.3465,0.3468,0.3473,0.3476,0.3481,0.3484,0.3487,0.349,0.3494,0.3495,0.3499,0.3499,0.3501,0.3503,0.3503,0.3503,0.3505,0.3502,0.35,0.35,0.3504,0.3504,0.3504,0,0.3443,0.3451,0.3456,0.3458,0.3466,0.3468,0.3471,0.3476,0.3478,0.3482,0.3484,0.3488,0.3491,0.3494,0.3498,0.3499,0.3501,0.3503,0.3503,0.3503,0.3504,0.3503,0.3501,0.3505,0.3505,0.3505,0.3505,0,0.3444,0.3447,0.3454,0.3457,0.346,0.3465,0.3468,0.3472,0.3476,0.3479,0.3483,0.3485,0.3491,0.3493,0.3497,0.3499,0.35,0.3502,0.3503,0.3502,0.3501,0.3503,0.3503,0.3505,0.3505,0.3505,0.3505,0,0.3442,0.3447,0.3452,0.3458,0.346,0.3462,0.3467,0.3469,0.3473,0.3476,0.3477,0.3483,0.3486,0.3491,0.3495,0.3497,0.35,0.3501,0.3498,0.3498,0.3498,0.3498,0.3496,0.3496,0.35,0.35,0.35,0,0.3442,0.3445,0.3451,0.3453,0.3456,0.346,0.3463,0.3467,0.347,0.3475,0.3476,0.348,0.3484,0.3489,0.3493,0.3496,0.3497,0.3497,0.3498,0.3496,0.3497,0.3497,0.3497,0.3496,0.3496,0.3496,0.3496,0,0.3442,0.3444,0.3447,0.3452,0.3455,0.3458,0.3462,0.3464,0.3469,0.3471,0.3475,0.3478,0.3482,0.3486,0.349,0.3492,0.3495,0.3495,0.3496,0.3494,0.3492,0.3493,0.3497,0.3496,0.3496,0.3496,0.3496,0.3496,0.344,0.3442,0.3447,0.3451,0.3454,0.3457,0.3459,0.3463,0.3466,0.347,0.3473,0.3476,0.348,0.3485,0.3488,0.349,0.3491,0.3491,0.3491,0.3491,0.3491,0.3492,0.3491,0.3491,0.3491,0.3491,0.3491,0,0.344,0.3443,0.3446,0.3451,0.3454,0.3456,0.346,0.3462,0.3465,0.3468,0.3471,0.3475,0.3478,0.3482,0.3485,0.3486,0.3487,0.3487,0.3487,0.3487,0.349,0.3489,0.3486,0.3486,0.3486,0.3486,0.3486,0.3486,0.344,0.3443,0.3445,0.345,0.3453,0.3456,0.3458,0.3461,0.3463,0.3467,0.347,0.3472,0.3476,0.3479,0.3482,0.3483,0.3484,0.3483,0.3484,0.3487,0.3487,0.3487,0.3487,0.3483,0.3483,0.3481,0.3481,0.3481]},{"header":{"parameterUnit":"m.s-1","parameterCategory":1,"la1":30.2991,"la2":30.254,"lo1":-89.0895,"lo2":-89.0444,"dy":0.0017,"dx":0.0017,"nx":28,"ny":28,"refTime":"2023-10-19T03:00:00:Z","depth":0,"parameterNumber":3,"parameterNumberName":"V-component_of_WINDS"},"data":[0,0,0,0,0,0,0,0,0,0,0,0,0,0,0,0,0,0,0,0,0,0,0,0,0,0,0,0,0,0,0,0,0,0,0,0,0,0,0,0,0,0,0,0,0,0,0,0,0,0,0,0,0,0,0,0,0,0,3.66,3.66,0,3.6605,3.6605,3.6605,3.6546,3.6544,3.6543,3.6541,3.6546,3.6548,3.655,0,0,0,0,0,0,0,0,0,0,0,0,0,3.6537,3.6538,3.66,3.66,3.66,3.6605,3.6605,3.6606,3.6546,3.6544,3.6542,3.654,3.6546,3.6548,3.655,0,0,0,0,0,0,0,0,0,0,0,0,0,3.6555,3.6539,3.66,3.6571,3.6569,3.6605,3.6605,3.6606,3.6547,3.6544,3.6542,3.6539,3.6545,3.6547,3.655,3.6614,0,0,3.6558,3.6559,0,0,0,0,0,0,0,0,3.6554,3.6558,3.6575,3.6573,3.657,3.6572,3.6585,3.6609,3.6547,3.6555,3.6541,3.6538,3.6557,3.6558,3.6565,3.6615,3.6615,3.6558,3.6559,3.656,3.6561,0,0,0,0,0,0,0,3.6553,3.6557,3.6602,3.6576,3.6573,3.6557,3.6557,3.6589,3.657,3.6554,3.655,3.6551,3.6555,3.6562,3.6564,3.6615,3.6558,3.656,3.6561,3.6562,3.6715,3.6718,0,0,0,0,0,0,3.6556,3.6556,3.6602,3.6602,3.6556,3.6561,3.656,3.6574,3.6569,3.6566,3.6553,3.6548,3.6559,3.6562,3.6564,3.6637,3.656,3.6563,3.6564,3.6713,3.6716,3.6718,0,0,0,0,0,0,3.6555,3.656,3.6602,3.6578,3.6582,3.6564,3.658,3.6576,3.6583,3.6569,3.6565,3.6564,3.6558,3.6561,3.6602,3.6636,3.6564,3.6566,3.671,3.6714,3.6717,3.6784,0,0,0,0,0,0,3.6553,3.656,3.6585,3.6579,3.6584,3.664,3.6582,3.6578,3.6587,3.6581,3.6578,3.6575,3.6556,3.6598,3.6604,3.6638,3.6568,3.6706,3.6711,3.6716,3.6779,3.679,3.6799,0,0,0,0,0,3.6551,3.6605,3.6587,3.6593,3.6614,3.6642,3.6644,3.6621,3.6591,3.6615,3.6605,3.6575,3.6632,3.6603,3.6609,3.6645,3.6704,3.671,3.6715,3.6774,3.6788,3.6799,0,0,0,0,0,0,3.6616,3.6603,3.6583,3.6637,3.6641,3.6632,3.6662,3.6637,3.665,3.6643,3.6614,3.6614,3.6659,3.6656,3.6624,3.6705,3.6663,3.667,3.6705,3.6718,3.6728,3.6726,3.657,0,0,0,0,0,3.6636,3.666,3.6648,3.6696,3.6699,3.668,3.6691,3.6673,3.6676,3.6677,3.6671,3.6675,3.6693,3.6706,3.6722,3.6779,3.6776,3.6806,3.6817,3.6825,3.6831,3.6858,3.6871,3.6737,3.6737,3.6737,0,0,3.6679,3.6675,3.6692,3.6709,3.6709,3.6733,3.6682,3.671,3.6727,3.6681,3.6719,3.6715,3.6717,3.6765,3.6786,3.6764,3.6867,3.6832,3.6839,3.684,3.6865,3.6878,3.6889,3.6741,3.6741,3.674,0,0,3.6767,3.6768,3.6807,3.6808,3.681,3.6797,3.6806,3.6801,3.6796,3.6833,3.6798,3.6819,3.6852,3.6854,3.6859,3.6947,3.6919,3.6954,3.7007,3.7033,3.7044,3.7053,3.7082,3.7093,3.696,3.696,3.696,0,3.682,3.6855,3.683,3.6859,3.6867,3.6826,3.6864,3.6867,3.6875,3.688,3.6856,3.6895,3.6894,3.6941,3.6962,3.6969,3.6977,3.6953,3.7045,3.7053,3.7061,3.7088,3.71,3.6964,3.6964,3.6963,3.6963,0,3.6917,3.6942,3.6973,3.698,3.6991,3.7025,3.7004,3.7019,3.7,3.6989,3.7026,3.7023,3.7037,3.7047,3.703,3.7091,3.7077,3.705,3.7005,3.7078,3.7103,3.7114,3.697,3.6969,3.6967,3.6966,0,0,3.7047,3.7038,3.705,3.7051,3.7049,3.7068,3.7099,3.7112,3.7124,3.7131,3.7155,3.7183,3.7156,3.7163,3.7145,3.7169,3.7235,3.7137,3.7137,3.7153,3.73,3.7319,3.7332,3.7218,3.722,3.7221,3.7299,0,3.7131,3.7183,3.7161,3.7215,3.7236,3.7198,3.7225,3.7226,3.7217,3.7233,3.7223,3.7242,3.7207,3.721,3.7233,3.7222,3.7264,3.7217,3.7238,3.7239,3.7236,3.7345,3.7366,3.7439,3.7309,3.7311,3.7312,0,3.7236,3.7245,3.7301,3.7293,3.7301,3.7326,3.7335,3.7351,3.7352,3.7343,3.735,3.7326,3.7355,3.7313,3.7352,3.732,3.7328,3.7324,3.7326,3.7325,3.7278,3.7344,3.7463,3.7473,3.7327,3.7326,3.7325,0,3.732,3.7347,3.7383,3.7386,3.7379,3.7397,3.7394,3.7392,3.7401,3.7409,3.7414,3.7426,3.7432,3.7442,3.7421,3.7393,3.7462,3.7419,3.7454,3.7455,3.7468,3.7467,3.7587,3.7478,3.7478,3.7478,3.7478,0,3.7415,3.745,3.7421,3.7443,3.748,3.7454,3.7492,3.7486,3.7484,3.7504,3.7472,3.7491,3.7464,3.748,3.7465,3.7498,3.7502,3.7494,3.7489,3.7496,3.7496,3.7498,3.7492,3.7481,3.748,3.748,3.7479,0,3.7515,3.7497,3.7534,3.7523,3.7521,3.7549,3.754,3.7559,3.7548,3.7573,3.7577,3.7559,3.7576,3.7557,3.7574,3.7563,3.7607,3.7596,3.7606,3.7602,3.7637,3.7633,3.776,3.7774,3.7659,3.766,3.7661,0,3.7575,3.7601,3.7593,3.7603,3.7603,3.762,3.7628,3.7604,3.7613,3.7615,3.7634,3.7648,3.7658,3.7687,3.7675,3.7687,3.7674,3.7718,3.7675,3.768,3.7671,3.7669,3.767,3.7725,3.7727,3.7728,3.7729,0,3.7683,3.7672,3.7685,3.7694,3.7704,3.7711,3.7715,3.7725,3.7699,3.7712,3.7728,3.7736,3.7751,3.7765,3.7774,3.7771,3.7745,3.7743,3.7751,3.7756,3.776,3.7756,3.7627,3.7739,3.7738,3.7737,3.7737,3.7737,3.7763,3.7783,3.778,3.7794,3.7794,3.7798,3.7815,3.7805,3.7818,3.7828,3.7813,3.7833,3.7832,3.784,3.784,3.7855,3.7836,3.7849,3.7852,3.7854,3.7858,3.776,3.7857,3.7856,3.7856,3.7856,3.7856,0,3.7867,3.7862,3.7876,3.7881,3.7892,3.7867,3.787,3.7881,3.7898,3.7899,3.7909,3.7927,3.794,3.7929,3.794,3.7954,3.7942,3.7957,3.7954,3.7954,3.7876,3.7866,3.7966,3.7966,3.7966,3.7966,3.7966,3.7966,3.7922,3.7953,3.7942,3.7972,3.7968,3.7986,3.7989,3.7992,3.7992,3.8013,3.8024,3.8016,3.8012,3.8022,3.8032,3.8029,3.8033,3.8052,3.8044,3.7971,3.796,3.7949,3.794,3.8053,3.8054,3.812,3.812,3.8121]}]]